This is the latest recevied weather packets stored in our database for station/object KC1HBM. If no packets are shown the sender has not sent any weather packets the latest 10 day(s).
| Time | Temp. | Humidity | Pressure | Rain* | Wind** | Luminosity | Snow |
|---|---|---|---|---|---|---|---|
| 1777936538 | 20° C | 40% | 1003.1 hPa | 0 mm | - | 5 W/m² | - |
| 1777936234 | 20° C | 40% | 1002.8 hPa | 0 mm | - | 7 W/m² | - |
| 1777935930 | 20° C | 40% | 1002.8 hPa | 0 mm | - | 11 W/m² | - |
| 1777935630 | 20° C | 39% | 1002.7 hPa | 0 mm | - | 12 W/m² | - |
| 1777935326 | 20° C | 39% | 1002.7 hPa | 0 mm | - | 12 W/m² | - |
| 1777935023 | 20° C | 40% | 1002.9 hPa | 0 mm | - | 12 W/m² | - |
| 1777934720 | 20.56° C | 38% | 1002.8 hPa | 0 mm | - | 14 W/m² | - |
| 1777934417 | 20° C | 40% | 1002.8 hPa | 0 mm | - | 14 W/m² | - |
| 1777934114 | 20° C | 40% | 1002.6 hPa | 0 mm | - | 13 W/m² | - |
| 1777933810 | 20° C | 40% | 1002.4 hPa | 0 mm | - | 14 W/m² | - |
| 1777933507 | 20.56° C | 38% | 1002.4 hPa | 0 mm | - | 11 W/m² | - |
| 1777933204 | 20.56° C | 38% | 1002.5 hPa | 0 mm | - | 16 W/m² | - |
| 1777932901 | 20.56° C | 38% | 1002.6 hPa | 0 mm | - | 16 W/m² | - |
| 1777932598 | 20.56° C | 39% | 1002.6 hPa | 0 mm | - | 16 W/m² | - |
| 1777932294 | 21.11° C | 39% | 1002.5 hPa | 0 mm | - | 16 W/m² | - |
| 1777931991 | 20.56° C | 38% | 1002.7 hPa | 0 mm | - | 18 W/m² | - |
| 1777931688 | 21.11° C | 38% | 1002.6 hPa | 0 mm | - | 17 W/m² | - |
| 1777931385 | 21.67° C | 38% | 1002.5 hPa | 0 mm | - | 19 W/m² | - |
| 1777931081 | 21.67° C | 37% | 1002.6 hPa | 0 mm | - | 25 W/m² | - |
| 1777930778 | 21.67° C | 37% | 1002.5 hPa | 0 mm | - | 34 W/m² | - |
| 1777930474 | 21.67° C | 37% | 1002.5 hPa | 0 mm | - | 29 W/m² | - |
| 1777930172 | 21.67° C | 37% | 1002.6 hPa | 0 mm | - | 35 W/m² | - |
| 1777929867 | 21.67° C | 37% | 1002.6 hPa | 0 mm | - | 33 W/m² | - |
| 1777929565 | 21.67° C | 37% | 1002.5 hPa | 0 mm | - | 35 W/m² | - |
| 1777929261 | 21.67° C | 38% | 1002.5 hPa | 0 mm | - | 42 W/m² | - |
* Rain latest hour (hover to see other rain measurements)
** Current wind speed in m/s (hover to see current wind gust speed)